TEVEL2-8

Last updated on Sun Aug 09 2026 00:03:16 GMT+0000 (Coordinated Universal Time)

1 63239U 25052AF 26220.64272999 .00008878 00000+0 28007-3 0 9997 2 63239 97.3871 115.7719 0004596 337.7031 22.4011 15.33090571 78053
UTC large
Height (km)
Speed (km/s)
/
Latitude / Longitude
Inclination (degrees)
Orbital Period (minutes)
Azimuth
Elevation
Range (km)
Doppler Factor

Next 0 passes for location: London (51.5072 / 0.1276)

No passes found over London.
TEVEL2-8